{"data":{"norad_id":68076,"intl_designator":"2026-042H","name":"STARLINK-37023","alt_names":[],"object_type":"PAYLOAD","status":"ACTIVE","operator":null,"country":"US","launch_date":"2026-03-04","launch_site_code":"AFETR","launch_vehicle":null,"mission":null,"orbit_class":"UNKNOWN","rcs_meters":null,"size_class":null,"mass_kg":null,"dimensions":null,"purposes":["comms"],"wikipedia_slug":null,"has_3d_model":false,"image_url":null,"decayed_at":null,"tle_current":{"epoch":"2026-05-25T02:47:12.640128Z","epoch_age_seconds":64701,"freshness":"FRESH","line1":"1 68076U 26042H   26145.11611852  .00017913  00000+0  53981-3 0  9993","line2":"2 68076  53.1585 183.2245 0001495  92.5668 267.5505 15.34412976 14014","mean_motion":15.34412976,"eccentricity":0.0001495,"inclination_deg":53.1585,"raan_deg":183.2245,"arg_perigee_deg":92.5668,"mean_anomaly_deg":267.5505,"bstar":0.00053981,"rev_number":1401,"period_min":93.846964443293,"perigee_km":461.64197322221,"apogee_km":463.68737292246,"semimajor_km":6840.8016730723,"source":"CELESTRAK","updated_at":"2026-05-25T13:38:21.818555Z"}}}